Location: *
(50.2903°S, 172.5375°W)
Time: 23:48:29
(UTC+00:00)

ATLAS CENTAUR R/B - Pass Details

Date: 17 November 2019
Orbit: 457 x 691 km, 64.7° (Epoch: 30 November)

Event Time Altitude Azimuth Distance (km) Brightness Sun altitude
Rises 13:57:19 0° 229° (SW) 2,750 4.9 -12.0°
Reaches altitude 10° 13:59:42 10° 240° (WSW) 1,890 4.0 -11.8°
Maximum altitude 14:03:19 28° 299° (WNW) 1,151 2.4 -11.4°
Drops below altitude 10° 14:07:09 10° 357° (N) 1,996 3.7 -11.0°
Enters shadow 14:07:49 - 0° (N) 2,228 4.0 -11.0°
